SCP
0 0 0 0 0 0 0 0 0 0 0 0 0 0 0 0 0 0 0 0 0 0 0 0 0 0 0 0 0 0 0 0 0 0 0 0 0 0 0 0 0 0 0
1 0 0 0 0 0 0 0 0 0 0 0 0 0 0 0 0 0 0 0 0 0 0 0 0 0 0 0 0 0 0 0 0 0 0 0 0 0 0 0 0 0 0
0 0 0 0 0 0 0 0 0 0 0 0 0 0 0 0 0 0 0 0 0 0 0 0 0 0 0 0 0 0 0 0 0 0 0 0 0 0 0 0 0 0 0
0 0 0 0 0 0 0 0 0 0 0 0 0 0 0 0 0 0 0 0 0 0 0 0 0 0 0 0 0 0 0 0 0 0 0 0 0 0 0 0 0 0 0
0 0 0 0 0 0 0 0 0 0 0 0 0 0 0 0 0 0 0 0 0 0 0 0 0 0 0 0 0 0 0 0 0 0 0 0 0 0 0 0 0 0 0
0 0 0 0 0 0 0 0 0 0 0 0 0 0 0 0 0 0 0 0 0 0 0 0 0 0 0 0 0 0 0 0 0 0 0 0 0 0 0 0 0 0 0
0 0 0 0 0 0 0 0 0 0 0 0 0 0 0 0 0 0 0 0 0 0 0 0 0 0 0 0 0 0 0 0 0 0 0 0 0 0 0 0 0 0 0
0 0 0 0 0 0 0 0 0 0 0 0 0 0 0 0 0 0 0 0 0 0 0 0 0 0 0 0 0 0 0 0 0 0 0 0 0 0 0 0 0 0 0
0 0 0 0 0 0 0 0 0 0 0 0 0 0 0 0 0 0 0 0 0 0 0 0 0 0 0 0 0 0 0 0 0 0 0 0 -0 -0 -0 0 0 0 0
0 0 0 0 0 0 0 0 0 0 0 -0 -0 0 0 0 0 0 0 0 0 0 0 0 0 0 0 0 0 0 0 0 0 0 0 0 0 0 -0 0 0 0 0
0 0 0 0 0 0 0 0 0 -0 -0 -0 -0 0 0 0 0 0 0 0 0 0 0 0 0 0 0 0 0 0 0 0 0 0 0 0 0 0 0 0 0 0 0
0 0 0 0 0 0 0 0 0 -0 -0 -0 0 0 0 0 0 0 0 0 0 0 0 0 0 0 0 0 0 0 0 0 0 0 0 0 0 0 0 0 0 0 0
0 0 0 0 0 0 0 -0 0 -0 0 0 -0 0 0 0 0 0 0 0 0 0 0 0 0 0 0 0 0 0 0 0 0 0 0 0 0 0 0 0 0 0 0
0 0 0 0 0 0 0 -0 -0 -0 -0 -0 -0 0 0 0 0 0 0 0 0 0 0 0 0 0 0 0 0 0 0 0 0 0 0 0 0 0 0 0 0 0 0
0 0 0 0 0 0 0 -0 -0 0 0 0 -0 -0 0 0 0 -0 0 0 0 0 0 0 0 0 0 0 0 0 0 0 0 0 0 0 0 0 0 0 0 0 0
0 0 0 0 0 0 -0 -0 -0 -0 -0 -0 0 -0 0 0 -0 -0 -0 0 0 -0 0 0 0 0 0 0 0 0 0 0 0 0 0 0 0 0 0 0 0 0 0
0 0 0 0 0 -0 -0 0 0 -0 -0 -0 -0 -0 -0 -0 -0 -0 0 0 0 0 0 0 0 0 0 0 0 0 0 0 0 0 0 -0 0 0 0 0 0 0 0
0 0 0 0 -0 -0 -0 0 0 -0 -0 0 -0 0 -0 -0 0 0 0 0 0 0 0 0 0 0 0 0 0 0 0 0 0 0 0 -0 -0 0 0 0 0 0 0
0 0 0 0 0 0 0 0 0 0 0 0 0 0 0 -0 0 0 0 0 0 0 0 0 0 0 0 0 0 0 0 0 0 0 -0 -0 -0 -0 0 0 0 0 0
0 -0 0 0 0 0 0 0 0 0 0 0 0 0 0 0 0 0 0 0 0 0 0 0 0 0 0 0 0 0 0 0 0 0 0 -0 -0 -0 0 0 0 0 0
0 0 0 0 0 0 0 0 0 0 0 0 0 -0 0 0 0 0 0 0 0 0 0 0 0 0 0 0 0 0 0 0 0 0 0 -0 0 -0 0 0 0 0 0
0 0 0 0 -0 0 0 0 0 0 0 0 0 0 0 0 0 0 0 0 0 0 0 0 0 0 0 0 0 0 0 0 0 0 0 -0 -0 -0 0 0 0 0 0
0 0 0 0 0 0 0 0 0 0 0 0 0 0 0 0 0 0 0 0 0 0 0 0 0 0 0 0 0 0 0 0 -0 -0 -0 -0 -0 0 -0 -0 0 0 0
0 0 0 0 0 0 0 0 0 0 0 0 0 0 0 0 0 0 0 0 0 0 0 0 0 0 0 0 0 0 -0 -0 -0 -0 -0 -0 -0 0 0 -0 -0 -0 0
0 0 0 0 0 0 0 0 0 0 0 0 0 0 0 0 0 0 0 0 0 0 0 0 0 0 0 0 0 0 -0 -0 -0 -0 -0 -0 -0 0 0 0 -0 -0 -0
0 0 0 0 0 0 0 0 0 0 0 0 0 0 0 0 0 0 0 0 0 0 0 0 0 0 0 0 0 0 0 0 -0 -0 -0 -0 -0 -0 0 0 -0 -0 -0
Wind_Speed_500mb
74 74 78 75 67 75 70 65 71 60 47 48 37 27 22 18 16 11 4 3 7 10 15 18 23 25 27 26 26 27 28 32 42 51 48 45 43 42 43 41 40 41 45
56 55 58 69 79 80 73 79 69 60 49 40 34 25 23 16 14 7 2 2 6 13 17 17 21 26 26 25 27 28 31 33 41 50 50 48 43 41 44 40 42 50 51
55 65 46 45 73 92 84 80 67 52 49 42 35 29 24 18 11 8 6 2 10 13 15 21 26 25 23 27 28 29 32 37 40 41 47 46 46 47 43 43 48 53 56
55 53 55 65 97 99 87 77 67 60 53 46 30 25 23 17 14 11 6 9 10 14 21 27 28 29 31 32 36 39 41 42 43 40 45 51 51 52 54 56 54 58 61
52 69 82 80 75 96 86 75 70 58 51 37 34 27 21 20 17 10 10 9 11 16 22 26 28 28 31 36 41 44 45 46 45 45 47 48 55 58 62 61 58 60 54
66 70 71 76 86 93 92 75 63 57 47 39 32 27 23 20 15 11 11 11 13 20 24 26 24 29 35 36 37 41 45 44 43 44 48 53 57 57 58 57 55 58 61
71 67 71 77 83 50 63 60 63 53 45 41 30 25 27 24 22 17 16 11 14 22 25 25 29 34 38 40 43 42 41 40 38 43 49 50 55 54 53 49 45 47 50
70 72 74 83 77 68 57 54 52 48 43 38 34 29 29 29 21 16 16 14 20 26 25 26 33 38 43 47 47 48 43 39 38 41 43 47 48 49 47 44 44 49 49
83 90 79 74 77 73 64 58 53 49 43 37 33 32 30 33 24 23 16 19 22 25 22 28 35 42 46 48 48 51 51 48 42 41 39 41 42 45 44 43 43 50 56
94 78 76 68 61 64 63 56 52 44 41 39 42 40 34 36 32 21 22 23 24 20 24 31 37 39 45 49 52 55 55 53 47 41 40 38 37 37 40 39 42 45 48
88 84 75 67 67 68 63 56 54 50 47 46 44 42 41 36 29 24 25 22 22 20 26 33 36 40 44 47 50 54 56 53 50 48 44 41 42 42 39 38 38 41 43
90 82 82 80 75 67 62 59 51 48 47 46 45 47 41 37 31 26 24 25 24 22 34 36 37 41 42 44 48 49 49 47 52 55 53 47 48 47 45 40 38 39 35
78 86 83 79 72 64 60 56 50 45 46 49 45 46 44 36 29 27 25 23 24 32 38 37 36 35 36 42 49 49 48 54 60 65 62 55 48 47 49 46 43 45 42
86 81 78 73 69 62 54 48 47 47 48 46 46 45 41 32 30 25 23 22 30 35 33 32 32 35 40 44 43 47 57 60 64 66 65 59 54 49 50 51 53 54 47
82 78 75 77 73 67 60 52 51 49 40 44 44 40 36 34 29 25 24 30 34 33 26 22 28 38 46 47 48 54 59 62 62 63 66 65 59 53 51 54 55 55 54
77 75 74 73 69 64 60 62 53 50 44 40 37 33 38 32 29 30 31 32 31 27 23 38 43 49 50 52 54 58 60 61 62 67 69 67 64 59 57 56 51 57 55
69 71 72 68 63 58 53 53 64 55 43 39 34 34 34 31 30 31 28 27 27 26 39 42 48 48 48 50 52 56 57 57 62 69 74 71 67 61 62 61 58 59 55
60 62 63 58 53 52 47 46 53 57 55 46 33 32 28 28 30 27 25 17 30 40 42 44 46 48 50 49 49 50 50 55 63 67 76 76 70 67 65 63 58 61 59
54 52 49 53 52 48 47 49 49 50 46 43 40 33 27 27 28 26 25 33 40 41 41 43 45 47 47 47 44 46 49 57 64 69 75 79 73 69 66 65 59 56 57
46 49 55 56 57 56 55 54 50 45 45 41 36 34 28 21 26 32 34 40 38 40 42 43 44 43 45 44 41 46 52 58 63 71 75 79 76 69 68 65 61 58 59
54 54 52 55 60 60 57 52 48 45 43 39 37 30 23 18 30 32 37 37 40 41 42 42 39 41 41 43 44 48 54 59 63 70 75 74 76 74 69 65 61 57 57
50 52 54 60 62 58 53 46 42 40 37 35 36 31 21 23 29 32 35 38 41 42 39 38 36 40 43 46 49 49 55 61 65 69 72 73 72 71 69 68 65 62 58
53 59 62 62 58 53 48 43 42 35 33 31 29 27 21 23 25 29 32 38 40 36 32 31 34 37 40 45 49 51 55 60 62 65 66 69 71 69 69 68 68 65 64
54 54 53 50 45 45 45 44 40 32 29 27 23 21 21 21 20 24 30 34 32 29 29 31 34 37 40 43 47 49 51 54 56 57 59 62 66 68 69 68 68 68 68
47 48 45 41 42 44 45 45 37 31 26 23 19 18 20 18 18 21 25 27 26 26 28 30 32 36 38 39 43 46 47 51 53 52 54 57 60 63 68 69 68 68 72
46 45 41 40 43 47 48 44 34 28 25 21 18 17 18 17 15 16 19 20 22 24 26 29 33 34 34 37 41 42 44 48 51 52 55 57 60 61 66 69 70 72 72
Wind_Direction_500mb
220 216 215 212 213 201 201 196 193 193 188 187 179 177 170 189 178 171 195 293 339 343 325 337 341 347 345 346 350 351 346 340 332 336 345 343 342 343 345 348 352 347 346
186 190 201 194 205 202 199 187 187 184 176 176 167 169 170 162 164 163 236 323 339 338 346 357 357 1 353 356 356 351 352 352 342 343 349 348 349 350 356 354 356 359 354
199 199 213 209 193 201 189 178 172 176 168 161 168 163 152 163 162 186 181 44 359 12 14 8 8 10 4 8 2 0 358 356 352 345 343 349 354 353 354 358 359 359 358
207 207 202 203 185 180 174 169 170 164 161 159 148 151 152 156 182 166 119 52 38 28 14 11 12 16 16 14 10 5 359 352 353 354 355 350 350 352 354 357 358 1 360
204 193 178 176 177 170 165 164 160 156 154 150 153 147 162 173 160 134 80 59 44 28 22 23 24 20 17 10 4 360 356 351 355 355 351 349 350 350 352 356 358 354 1
194 193 184 174 169 162 155 158 153 152 149 149 155 156 156 164 148 121 97 71 41 31 35 34 24 19 13 10 4 1 353 351 358 354 353 352 348 348 351 352 352 353 353
191 188 180 173 152 147 143 150 151 142 142 149 155 160 152 147 128 116 92 70 54 47 38 32 23 17 17 19 14 3 1 357 359 1 356 355 349 348 349 348 348 345 349
168 165 152 142 130 138 140 149 148 146 146 139 145 146 143 135 126 111 101 73 49 48 38 30 23 20 20 19 15 14 10 8 7 3 357 355 351 349 346 343 340 340 348
144 138 137 139 137 143 158 150 142 141 141 140 142 138 141 130 125 112 94 56 51 49 33 27 25 22 19 16 14 16 15 16 10 3 0 1 359 355 348 344 344 342 341
137 137 139 143 152 148 144 144 135 138 138 142 136 129 127 122 121 108 77 62 50 42 33 29 23 22 17 13 10 12 13 12 2 354 357 4 2 357 354 349 345 342 338
145 144 152 155 148 141 139 137 137 136 133 135 128 118 117 114 108 89 74 63 55 38 39 33 23 22 18 14 12 12 9 4 0 357 355 359 3 3 0 356 353 351 343
154 154 146 145 140 138 139 134 133 133 134 126 121 118 109 102 94 86 75 62 56 44 43 34 27 22 16 16 14 13 10 7 9 8 5 1 2 3 2 2 4 3 353
141 141 142 140 138 138 136 132 130 131 129 124 121 113 108 103 96 77 64 57 54 48 43 34 27 21 20 20 18 11 9 15 16 15 11 9 6 5 2 358 9 5 4
144 141 140 137 136 133 127 123 125 129 125 121 119 114 111 105 87 76 68 63 55 49 40 33 29 27 25 25 21 17 20 17 17 15 13 14 10 12 10 11 10 10 6
143 143 141 137 135 131 124 118 119 114 114 118 114 110 108 102 90 76 66 60 54 47 39 42 38 34 32 29 24 23 23 19 18 14 13 17 17 15 20 18 14 12 14
144 142 140 138 137 136 131 123 119 115 117 115 112 110 109 92 82 66 56 54 56 50 38 40 37 35 30 25 22 25 23 21 21 18 16 19 20 18 24 21 15 15 19
149 145 142 140 140 142 138 133 129 124 122 115 111 101 90 89 77 69 59 54 59 48 43 42 39 35 32 28 25 24 22 20 22 21 19 21 23 24 26 25 21 19 21
148 145 145 147 148 148 143 139 136 137 134 124 105 92 89 84 79 77 68 61 57 52 46 43 38 34 31 27 26 26 22 22 24 22 22 22 24 26 25 27 24 19 20
149 148 145 143 145 146 147 139 135 136 129 121 117 110 97 91 94 87 80 66 56 54 48 42 37 33 30 29 26 26 25 25 24 24 23 23 24 27 28 27 24 24 21
149 149 148 149 150 153 148 140 138 133 127 120 114 106 105 110 96 79 67 63 59 53 47 40 36 32 29 28 26 26 27 25 25 26 24 22 24 27 31 28 25 26 26
156 155 157 155 151 148 147 143 136 131 127 121 110 104 101 95 83 76 69 63 56 49 44 37 32 33 31 27 26 28 28 27 27 27 24 21 23 26 32 32 29 29 30
157 155 156 147 144 144 141 141 141 138 130 126 119 108 103 91 80 71 64 59 53 46 40 34 29 30 27 26 28 29 27 26 27 27 23 21 24 27 31 33 33 31 32
144 141 142 142 141 142 145 146 144 137 134 128 114 109 106 90 76 68 59 55 51 44 39 34 32 31 30 29 28 29 29 27 26 25 22 21 26 27 31 34 35 36 37
143 146 145 147 150 150 147 142 141 138 128 117 118 114 106 92 78 65 56 51 47 42 37 34 33 32 32 31 31 32 31 28 27 25 23 23 26 29 32 36 38 39 41
154 154 152 156 155 156 146 144 145 135 126 118 122 115 108 95 79 64 55 48 41 37 35 34 35 34 33 33 34 34 32 30 29 28 27 27 28 31 35 38 39 42 43
159 163 155 155 155 152 146 148 145 138 130 124 123 117 103 96 87 68 56 45 40 36 33 34 35 34 33 34 35 33 32 31 31 30 30 30 30 32 36 39 42 45 45
Wind_Speed_850mb
74 74 78 75 67 75 70 65 71 60 47 48 37 27 22 18 16 11 4 3 7 10 15 18 23 25 27 26 26 27 28 32 42 51 48 45 43 42 43 41 40 41 45
56 55 58 69 79 80 73 79 69 60 49 40 34 25 23 16 14 7 2 2 6 13 17 17 21 26 26 25 27 28 31 33 41 50 50 48 43 41 44 40 42 50 51
55 65 46 45 73 92 84 80 67 52 49 42 35 29 24 18 11 8 6 2 10 13 15 21 26 25 23 27 28 29 32 37 40 41 47 46 46 47 43 43 48 53 56
55 53 55 65 97 99 87 77 67 60 53 46 30 25 23 17 14 11 6 9 10 14 21 27 28 29 31 32 36 39 41 42 43 40 45 51 51 52 54 56 54 58 61
52 69 82 80 75 96 86 75 70 58 51 37 34 27 21 20 17 10 10 9 11 16 22 26 28 28 31 36 41 44 45 46 45 45 47 48 55 58 62 61 58 60 54
66 70 71 76 86 93 92 75 63 57 47 39 32 27 23 20 15 11 11 11 13 20 24 26 24 29 35 36 37 41 45 44 43 44 48 53 57 57 58 57 55 58 61
71 67 71 77 83 50 63 60 63 53 45 41 30 25 27 24 22 17 16 11 14 22 25 25 29 34 38 40 43 42 41 40 38 43 49 50 55 54 53 49 45 47 50
70 72 74 83 77 68 57 54 52 48 43 38 34 29 29 29 21 16 16 14 20 26 25 26 33 38 43 47 47 48 43 39 38 41 43 47 48 49 47 44 44 49 49
83 90 79 74 77 73 64 58 53 49 43 37 33 32 30 33 24 23 16 19 22 25 22 28 35 42 46 48 48 51 51 48 42 41 39 41 42 45 44 43 43 50 56
94 78 76 68 61 64 63 56 52 44 41 39 42 40 34 36 32 21 22 23 24 20 24 31 37 39 45 49 52 55 55 53 47 41 40 38 37 37 40 39 42 45 48
88 84 75 67 67 68 63 56 54 50 47 46 44 42 41 36 29 24 25 22 22 20 26 33 36 40 44 47 50 54 56 53 50 48 44 41 42 42 39 38 38 41 43
90 82 82 80 75 67 62 59 51 48 47 46 45 47 41 37 31 26 24 25 24 22 34 36 37 41 42 44 48 49 49 47 52 55 53 47 48 47 45 40 38 39 35
78 86 83 79 72 64 60 56 50 45 46 49 45 46 44 36 29 27 25 23 24 32 38 37 36 35 36 42 49 49 48 54 60 65 62 55 48 47 49 46 43 45 42
86 81 78 73 69 62 54 48 47 47 48 46 46 45 41 32 30 25 23 22 30 35 33 32 32 35 40 44 43 47 57 60 64 66 65 59 54 49 50 51 53 54 47
82 78 75 77 73 67 60 52 51 49 40 44 44 40 36 34 29 25 24 30 34 33 26 22 28 38 46 47 48 54 59 62 62 63 66 65 59 53 51 54 55 55 54
77 75 74 73 69 64 60 62 53 50 44 40 37 33 38 32 29 30 31 32 31 27 23 38 43 49 50 52 54 58 60 61 62 67 69 67 64 59 57 56 51 57 55
69 71 72 68 63 58 53 53 64 55 43 39 34 34 34 31 30 31 28 27 27 26 39 42 48 48 48 50 52 56 57 57 62 69 74 71 67 61 62 61 58 59 55
60 62 63 58 53 52 47 46 53 57 55 46 33 32 28 28 30 27 25 17 30 40 42 44 46 48 50 49 49 50 50 55 63 67 76 76 70 67 65 63 58 61 59
54 52 49 53 52 48 47 49 49 50 46 43 40 33 27 27 28 26 25 33 40 41 41 43 45 47 47 47 44 46 49 57 64 69 75 79 73 69 66 65 59 56 57
46 49 55 56 57 56 55 54 50 45 45 41 36 34 28 21 26 32 34 40 38 40 42 43 44 43 45 44 41 46 52 58 63 71 75 79 76 69 68 65 61 58 59
54 54 52 55 60 60 57 52 48 45 43 39 37 30 23 18 30 32 37 37 40 41 42 42 39 41 41 43 44 48 54 59 63 70 75 74 76 74 69 65 61 57 57
50 52 54 60 62 58 53 46 42 40 37 35 36 31 21 23 29 32 35 38 41 42 39 38 36 40 43 46 49 49 55 61 65 69 72 73 72 71 69 68 65 62 58
53 59 62 62 58 53 48 43 42 35 33 31 29 27 21 23 25 29 32 38 40 36 32 31 34 37 40 45 49 51 55 60 62 65 66 69 71 69 69 68 68 65 64
54 54 53 50 45 45 45 44 40 32 29 27 23 21 21 21 20 24 30 34 32 29 29 31 34 37 40 43 47 49 51 54 56 57 59 62 66 68 69 68 68 68 68
47 48 45 41 42 44 45 45 37 31 26 23 19 18 20 18 18 21 25 27 26 26 28 30 32 36 38 39 43 46 47 51 53 52 54 57 60 63 68 69 68 68 72
46 45 41 40 43 47 48 44 34 28 25 21 18 17 18 17 15 16 19 20 22 24 26 29 33 34 34 37 41 42 44 48 51 52 55 57 60 61 66 69 70 72 72
Wind_Direction_850mb
220 216 215 212 213 201 201 196 193 193 188 187 179 177 170 189 178 171 195 293 339 343 325 337 341 347 345 346 350 351 346 340 332 336 345 343 342 343 345 348 352 347 346
186 190 201 194 205 202 199 187 187 184 176 176 167 169 170 162 164 163 236 323 339 338 346 357 357 1 353 356 356 351 352 352 342 343 349 348 349 350 356 354 356 359 354
199 199 213 209 193 201 189 178 172 176 168 161 168 163 152 163 162 186 181 44 359 12 14 8 8 10 4 8 2 0 358 356 352 345 343 349 354 353 354 358 359 359 358
207 207 202 203 185 180 174 169 170 164 161 159 148 151 152 156 182 166 119 52 38 28 14 11 12 16 16 14 10 5 359 352 353 354 355 350 350 352 354 357 358 1 360
204 193 178 176 177 170 165 164 160 156 154 150 153 147 162 173 160 134 80 59 44 28 22 23 24 20 17 10 4 360 356 351 355 355 351 349 350 350 352 356 358 354 1
194 193 184 174 169 162 155 158 153 152 149 149 155 156 156 164 148 121 97 71 41 31 35 34 24 19 13 10 4 1 353 351 358 354 353 352 348 348 351 352 352 353 353
191 188 180 173 152 147 143 150 151 142 142 149 155 160 152 147 128 116 92 70 54 47 38 32 23 17 17 19 14 3 1 357 359 1 356 355 349 348 349 348 348 345 349
168 165 152 142 130 138 140 149 148 146 146 139 145 146 143 135 126 111 101 73 49 48 38 30 23 20 20 19 15 14 10 8 7 3 357 355 351 349 346 343 340 340 348
144 138 137 139 137 143 158 150 142 141 141 140 142 138 141 130 125 112 94 56 51 49 33 27 25 22 19 16 14 16 15 16 10 3 0 1 359 355 348 344 344 342 341
137 137 139 143 152 148 144 144 135 138 138 142 136 129 127 122 121 108 77 62 50 42 33 29 23 22 17 13 10 12 13 12 2 354 357 4 2 357 354 349 345 342 338
145 144 152 155 148 141 139 137 137 136 133 135 128 118 117 114 108 89 74 63 55 38 39 33 23 22 18 14 12 12 9 4 0 357 355 359 3 3 0 356 353 351 343
154 154 146 145 140 138 139 134 133 133 134 126 121 118 109 102 94 86 75 62 56 44 43 34 27 22 16 16 14 13 10 7 9 8 5 1 2 3 2 2 4 3 353
141 141 142 140 138 138 136 132 130 131 129 124 121 113 108 103 96 77 64 57 54 48 43 34 27 21 20 20 18 11 9 15 16 15 11 9 6 5 2 358 9 5 4
144 141 140 137 136 133 127 123 125 129 125 121 119 114 111 105 87 76 68 63 55 49 40 33 29 27 25 25 21 17 20 17 17 15 13 14 10 12 10 11 10 10 6
143 143 141 137 135 131 124 118 119 114 114 118 114 110 108 102 90 76 66 60 54 47 39 42 38 34 32 29 24 23 23 19 18 14 13 17 17 15 20 18 14 12 14
144 142 140 138 137 136 131 123 119 115 117 115 112 110 109 92 82 66 56 54 56 50 38 40 37 35 30 25 22 25 23 21 21 18 16 19 20 18 24 21 15 15 19
149 145 142 140 140 142 138 133 129 124 122 115 111 101 90 89 77 69 59 54 59 48 43 42 39 35 32 28 25 24 22 20 22 21 19 21 23 24 26 25 21 19 21
148 145 145 147 148 148 143 139 136 137 134 124 105 92 89 84 79 77 68 61 57 52 46 43 38 34 31 27 26 26 22 22 24 22 22 22 24 26 25 27 24 19 20
149 148 145 143 145 146 147 139 135 136 129 121 117 110 97 91 94 87 80 66 56 54 48 42 37 33 30 29 26 26 25 25 24 24 23 23 24 27 28 27 24 24 21
149 149 148 149 150 153 148 140 138 133 127 120 114 106 105 110 96 79 67 63 59 53 47 40 36 32 29 28 26 26 27 25 25 26 24 22 24 27 31 28 25 26 26
156 155 157 155 151 148 147 143 136 131 127 121 110 104 101 95 83 76 69 63 56 49 44 37 32 33 31 27 26 28 28 27 27 27 24 21 23 26 32 32 29 29 30
157 155 156 147 144 144 141 141 141 138 130 126 119 108 103 91 80 71 64 59 53 46 40 34 29 30 27 26 28 29 27 26 27 27 23 21 24 27 31 33 33 31 32
144 141 142 142 141 142 145 146 144 137 134 128 114 109 106 90 76 68 59 55 51 44 39 34 32 31 30 29 28 29 29 27 26 25 22 21 26 27 31 34 35 36 37
143 146 145 147 150 150 147 142 141 138 128 117 118 114 106 92 78 65 56 51 47 42 37 34 33 32 32 31 31 32 31 28 27 25 23 23 26 29 32 36 38 39 41
154 154 152 156 155 156 146 144 145 135 126 118 122 115 108 95 79 64 55 48 41 37 35 34 35 34 33 33 34 34 32 30 29 28 27 27 28 31 35 38 39 42 43
159 163 155 155 155 152 146 148 145 138 130 124 123 117 103 96 87 68 56 45 40 36 33 34 35 34 33 34 35 33 32 31 31 30 30 30 30 32 36 39 42 45 45